• In Uzbekistan
  • List of Countries
  • For 7 days
  • Water Temperature
  • Satellite Maps
  • Weather Map
  • Weather Widgets
  • user-avatar
    Login

    Hourly Weather Tibissa

    Today, 3 December, Saturday

    Time Temperature Precipitation Wind Pressure Humidity
    00:00 +6°C° 0 mm 2 mps 684 mmHg 75%
    01:00 +6°C° 0 mm 2 mps 684 mmHg 78%
    02:00 +6°C° 0 mm 2 mps 684 mmHg 79%
    03:00 +6°C° 0 mm 2 mps 684 mmHg 80%
    04:00 +6°C° 0 mm 2 mps 684 mmHg 81%
    05:00 +6°C° 0.2 mm 2 mps 684 mmHg 82%
    06:00 +6°C° 0.2 mm 2 mps 684 mmHg 82%
    07:00 +6°C° 0 mm 2 mps 684 mmHg 82%
    08:00 +8°C° 0.3 mm 2 mps 684 mmHg 76%
    09:00 +9°C° 0.3 mm 3 mps 684 mmHg 70%
    10:00 +10°C° 0.3 mm 3 mps 685 mmHg 64%
    11:00 +12°C° 0 mm 3 mps 685 mmHg 58%
    12:00 +13°C° 0 mm 4 mps 685 mmHg 52%
    13:00 +14°C° 0 mm 5 mps 685 mmHg 47%
    14:00 +14°C° 0.1 mm 5 mps 684 mmHg 49%
    15:00 +13°C° 0.1 mm 4 mps 684 mmHg 51%
    16:00 +13°C° 0.1 mm 4 mps 684 mmHg 52%
    17:00 +11°C° 0 mm 3 mps 684 mmHg 59%
    18:00 +10°C° 0 mm 3 mps 684 mmHg 66%
    19:00 +8°C° 0 mm 2 mps 683 mmHg 72%
    20:00 +8°C° 0 mm 2 mps 684 mmHg 74%
    21:00 +7°C° 0 mm 2 mps 684 mmHg 76%
    22:00 +7°C° 0 mm 2 mps 684 mmHg 77%
    23:00 +7°C° 0 mm 2 mps 684 mmHg 78%

    Tomorrow, 4 December, Sunday

    Time Temperature Precipitation Wind Pressure Humidity
    00:00 +7°C° 0 mm 2 mps 684 mmHg 79%
    01:00 +6°C° 0 mm 2 mps 684 mmHg 80%
    02:00 +6°C° 0 mm 2 mps 684 mmHg 81%
    03:00 +6°C° 0 mm 2 mps 684 mmHg 82%
    04:00 +6°C° 0 mm 2 mps 684 mmHg 83%
    05:00 +6°C° 0 mm 2 mps 684 mmHg 84%
    06:00 +5°C° 0 mm 2 mps 684 mmHg 86%
    07:00 +5°C° 0 mm 2 mps 684 mmHg 87%
    08:00 +7°C° 0 mm 2 mps 684 mmHg 79%
    09:00 +9°C° 0 mm 3 mps 685 mmHg 72%
    10:00 +11°C° 0 mm 3 mps 686 mmHg 64%
    11:00 +12°C° 0 mm 4 mps 686 mmHg 59%
    12:00 +13°C° 0 mm 4 mps 686 mmHg 54%
    13:00 +14°C° 0 mm 5 mps 686 mmHg 48%
    14:00 +14°C° 0 mm 5 mps 685 mmHg 49%
    15:00 +13°C° 0 mm 5 mps 685 mmHg 49%
    16:00 +13°C° 0 mm 5 mps 685 mmHg 50%
    17:00 +12°C° 0 mm 4 mps 685 mmHg 53%
    18:00 +10°C° 0 mm 4 mps 685 mmHg 56%
    19:00 +9°C° 0 mm 3 mps 685 mmHg 59%
    20:00 +9°C° 0.1 mm 3 mps 685 mmHg 59%
    21:00 +9°C° 0.1 mm 3 mps 685 mmHg 59%
    22:00 +9°C° 0.1 mm 3 mps 686 mmHg 59%
    23:00 +9°C° 0.2 mm 3 mps 686 mmHg 60%

    Day after tomorrow, 5 December, Monday

    Time Temperature Precipitation Wind Pressure Humidity
    00:00 +9°C° 0.2 mm 3 mps 686 mmHg 62%
    01:00 +8°C° 0.2 mm 3 mps 686 mmHg 64%
    02:00 +8°C° 0.8 mm 3 mps 686 mmHg 69%
    03:00 +8°C° 0.8 mm 2 mps 686 mmHg 74%
    04:00 +7°C° 0.8 mm 2 mps 686 mmHg 79%
    05:00 +7°C° 0.4 mm 2 mps 686 mmHg 82%
    06:00 +7°C° 0.4 mm 2 mps 686 mmHg 84%
    07:00 +7°C° 0.4 mm 2 mps 686 mmHg 87%
    08:00 +8°C° 0.2 mm 3 mps 686 mmHg 83%
    09:00 +8°C° 0.2 mm 4 mps 687 mmHg 80%
    10:00 +8°C° 0.2 mm 5 mps 687 mmHg 77%
    11:00 +9°C° 0.1 mm 5 mps 687 mmHg 72%
    12:00 +10°C° 0.1 mm 6 mps 687 mmHg 68%
    13:00 +11°C° 0.1 mm 6 mps 687 mmHg 63%
    14:00 +12°C° 0 mm 5 mps 687 mmHg 63%
    15:00 +12°C° 0 mm 5 mps 686 mmHg 62%
    16:00 +12°C° 0 mm 4 mps 686 mmHg 61%
    17:00 +11°C° 0 mm 3 mps 686 mmHg 65%
    18:00 +10°C° 0 mm 3 mps 686 mmHg 69%
    19:00 +9°C° 0 mm 2 mps 687 mmHg 73%
    20:00 +9°C° 0 mm 2 mps 687 mmHg 74%
    21:00 +9°C° 0 mm 2 mps 687 mmHg 74%
    22:00 +9°C° 0 mm 2 mps 687 mmHg 75%
    23:00 +10°C° 0 mm 1 mps 687 mmHg 76%

    6 December, Tuesday

    Time Temperature Precipitation Wind Pressure Humidity
    00:00 +9°C° 0 mm 1 mps 687 mmHg 77%
    01:00 +9°C° 0 mm 1 mps 687 mmHg 78%
    02:00 +9°C° 0 mm 1 mps 687 mmHg 79%
    03:00 +9°C° 0 mm 1 mps 687 mmHg 79%
    04:00 +9°C° 0 mm 1 mps 686 mmHg 80%
    05:00 +8°C° 0 mm 1 mps 686 mmHg 80%
    06:00 +8°C° 0 mm 1 mps 687 mmHg 80%
    07:00 +8°C° 0 mm 1 mps 687 mmHg 80%
    08:00 +9°C° 0.2 mm 1 mps 687 mmHg 77%
    09:00 +10°C° 0.2 mm 1 mps 688 mmHg 73%
    10:00 +11°C° 0.2 mm 1 mps 688 mmHg 69%
    11:00 +12°C° 0 mm 1 mps 688 mmHg 66%
    12:00 +13°C° 0 mm 1 mps 688 mmHg 63%
    13:00 +13°C° 0 mm 0 mps 688 mmHg 60%
    14:00 +14°C° 0 mm 1 mps 688 mmHg 61%
    15:00 +14°C° 0 mm 1 mps 688 mmHg 62%
    16:00 +14°C° 0 mm 1 mps 688 mmHg 63%
    17:00 +13°C° 0.1 mm 1 mps 688 mmHg 68%
    18:00 +12°C° 0.1 mm 1 mps 688 mmHg 73%
    19:00 +11°C° 0.1 mm 1 mps 688 mmHg 78%
    20:00 +11°C° 0 mm 1 mps 688 mmHg 81%
    21:00 +10°C° 0 mm 1 mps 688 mmHg 84%
    22:00 +9°C° 0 mm 0 mps 688 mmHg 87%
    23:00 +10°C° 0 mm 1 mps 688 mmHg 88%

    7 December, Wednesday

    Time Temperature Precipitation Wind Pressure Humidity
    00:00 +9°C° 0 mm 1 mps 688 mmHg 89%
    01:00 +9°C° 0 mm 1 mps 687 mmHg 90%
    02:00 +9°C° 0.2 mm 1 mps 687 mmHg 90%
    03:00 +9°C° 0.2 mm 1 mps 687 mmHg 90%
    04:00 +9°C° 0.2 mm 1 mps 687 mmHg 90%
    05:00 +9°C° 0.3 mm 1 mps 688 mmHg 91%
    06:00 +9°C° 0.3 mm 1 mps 688 mmHg 92%
    07:00 +9°C° 0.3 mm 1 mps 688 mmHg 92%
    08:00 +9°C° 0 mm 2 mps 688 mmHg 87%
    09:00 +10°C° 0 mm 2 mps 689 mmHg 82%
    10:00 +12°C° 0 mm 2 mps 689 mmHg 77%
    11:00 +12°C° 0 mm 2 mps 689 mmHg 74%
    12:00 +13°C° 0 mm 2 mps 689 mmHg 71%
    13:00 +13°C° 0 mm 3 mps 689 mmHg 68%
    14:00 +13°C° 0.1 mm 3 mps 688 mmHg 69%
    15:00 +12°C° 0.1 mm 3 mps 688 mmHg 71%
    16:00 +12°C° 0.1 mm 3 mps 688 mmHg 72%
    17:00 +12°C° 0 mm 3 mps 688 mmHg 76%
    18:00 +12°C° 0 mm 2 mps 689 mmHg 81%
    19:00 +10°C° 0 mm 2 mps 689 mmHg 85%
    20:00 +10°C° 0.1 mm 2 mps 689 mmHg 87%
    21:00 +10°C° 0.1 mm 2 mps 690 mmHg 88%
    22:00 +10°C° 0.1 mm 2 mps 690 mmHg 89%
    23:00 +10°C° 0.1 mm 2 mps 690 mmHg 91%

    8 December, Thursday

    Time Temperature Precipitation Wind Pressure Humidity
    00:00 +9°C° 0.1 mm 2 mps 690 mmHg 92%
    01:00 +9°C° 0.1 mm 2 mps 690 mmHg 94%
    02:00 +9°C° 0.1 mm 2 mps 690 mmHg 94%
    03:00 +9°C° 0.1 mm 2 mps 690 mmHg 94%
    04:00 +9°C° 0.1 mm 2 mps 690 mmHg 94%
    05:00 +9°C° 0.2 mm 2 mps 690 mmHg 94%
    06:00 +9°C° 0.2 mm 2 mps 691 mmHg 94%
    07:00 +9°C° 0.2 mm 2 mps 691 mmHg 94%
    08:00 +9°C° 0.2 mm 3 mps 691 mmHg 92%
    09:00 +10°C° 0.2 mm 3 mps 692 mmHg 90%
    10:00 +10°C° 0.2 mm 4 mps 692 mmHg 88%
    11:00 +11°C° 0.2 mm 4 mps 692 mmHg 86%
    12:00 +11°C° 0.2 mm 4 mps 692 mmHg 83%
    13:00 +11°C° 0.2 mm 4 mps 692 mmHg 81%
    14:00 +11°C° 0.4 mm 4 mps 692 mmHg 82%
    15:00 +11°C° 0.4 mm 4 mps 691 mmHg 83%
    16:00 +10°C° 0.4 mm 5 mps 691 mmHg 84%
    17:00 +11°C° 0.1 mm 4 mps 692 mmHg 86%
    18:00 +10°C° 0.1 mm 4 mps 692 mmHg 89%
    19:00 +10°C° 0.1 mm 4 mps 692 mmHg 91%
    20:00 +10°C° 0 mm 4 mps 692 mmHg 91%
    21:00 +8°C° 0 mm 4 mps 693 mmHg 90%
    22:00 +8°C° 0 mm 4 mps 693 mmHg 90%
    23:00 +8°C° 0 mm 4 mps 693 mmHg 89%
    Show more